Home > Weather > Trois-Rivieres > Past weeks

Flag for Canada Weather for the Past 2 Weeks in Trois-Rivieres, Quebec, Canada

Now
44 °F

Quite cool.


Feels Like: 41 °F
Forecast: 42 / 66 °F
Wind: 5 mph from North

Location: Trois Rivieres

Current Time: May 6, 2016 at 4:01:32 AM

Latest Report: May 6, 2016 at 3:00 AM


Visibility: N/A

Pressure: 29.84 "Hg

Humidity: 71%

Dew Point: 35 °F

Location of Trois-RivieresLocation

Historic Weather in Trois-Rivieres — Graph

°F

Trois-Rivieres Temperature Yesterday

Maximum temperature yesterday: 58 °F (at 5:00 PM)
Minimum temperature yesterday: 41 °F (at 6:00 AM)
Average temperature yesterday: 50 °F

High & Low Weather Summary for the Past Weeks

 TemperatureHumidityPressure
High58 °F (Apr 21, 7:00 PM)100% (Apr 22, 1:00 PM)30.29 "Hg (Apr 22, 1:00 PM)
Low26 °F (Apr 27, 8:00 AM)15% (Apr 30, 7:00 PM)29.75 "Hg (Apr 22, 2:00 PM)
Average42 °F56%30.01 "Hg
* Reported Apr 21 3:00 AM — May 6 3:00 AM, Trois-Rivieres, Weather by CustomWeather, © 2016

Note: Actual official high and low records may vary slightly from our data, if they occured in-between our weather recording intervals... More about our weather records

Advertising

Trois-Rivieres Weather History for the Previous 24 Hours

Scroll right to see more
 ConditionsComfort  
Time TempWeatherWind HumidityBarometerVisibility
3:00 AM
Fri, May 6
44 °FQuite cool.5 mph71%29.84 "HgN/A
2:00 AM44 °FQuite cool.5 mph75%29.84 "HgN/A
1:00 AM46 °FCool.7 mph64%29.83 "HgN/A
12:00 AM48 °FCool.8 mph61%29.83 "HgN/A
11:00 PM
Thu, May 5
50 °FCool.7 mph56%29.84 "HgN/A
10:00 PM51 °FCool.7 mph62%29.83 "HgN/A
9:00 PM52 °FCool.7 mph68%29.83 "HgN/A
8:00 PM54 °FCool.9 mph60%29.82 "HgN/A
7:00 PM56 °FRefreshingly cool.9 mph50%29.82 "HgN/A
6:00 PM57 °FRefreshingly cool.10 mph48%29.82 "HgN/A
5:00 PM58 °FRefreshingly cool.10 mph44%29.83 "HgN/A
4:00 PM57 °FRefreshingly cool.12 mph48%29.84 "HgN/A
3:00 PM57 °FRefreshingly cool.9 mph42%29.86 "HgN/A
2:00 PM55 °FRefreshingly cool.12 mph49%29.87 "HgN/A
1:00 PM55 °FRefreshingly cool.10 mph51%29.89 "HgN/A
12:00 PM53 °FCool.8 mph60%29.90 "HgN/A
11:00 AM51 °FCool.8 mph67%29.91 "HgN/A
10:00 AM50 °FCool.9 mph71%29.92 "HgN/A
9:00 AM48 °FCool.14 mph79%29.91 "HgN/A
8:00 AM46 °FCool.10 mph83%29.91 "HgN/A
7:00 AM44 °FQuite cool.7 mph82%29.90 "HgN/A
6:00 AM41 °FQuite cool.6 mph87%29.89 "HgN/A
5:00 AM42 °FQuite cool.6 mph86%29.88 "HgN/A
4:00 AM42 °FQuite cool.6 mph86%29.87 "HgN/A
Weather by CustomWeather, © 2016

See weather overviewHow to use our weather pages